Tracking 19476 objects as of 17-Jan-2019
HD Live streaming from Space Station
objects crossing your sky now

AUREOLE 2

Track AUREOLE 2 now!
10-day predictions
AUREOLE 2 is classified as:


NORAD ID: 7003
Int'l Code: 1973-107A
Perigee: 373.8 km
Apogee: 916.7 km
Inclination: 73.9 °
Period: 97.5 minutes
Semi major axis: 7016 km
RCS: 2.1042 m2 (large)
Launch date: December 26, 1973
Source: France (FR)
Launch site: PLESETSK MISSILE AND SPACE COMPLEX (PKMTR)
aabbcc
Your satellite tracking list
Your tracking list is empty




NASA's NSSDC Master Catalog

Two Line Element Set (TLE):
1  7003U 73107A   19016.93236538 +.00000737 +00000-0 +31370-4 0  9999
2  7003 073.9268 322.3025 0386879 178.4300 181.8200 14.77225060298775
Source of the keplerian elements: AFSPC